Location: Unspecified
(52.4292°N, 19.3359°E)
Time: 17:23:06
(UTC+02:00)

Transit 2A Rocket - Pass Details

Date: 30 May 2024
Orbit: 583 x 910 km, 66.7° (Epoch: 22 June)

Event Time Altitude Azimuth Distance (km) Brightness Sun altitude
Rises 01:23:19 0° 158° (SSE) 3,014 - -15.2°
Exits shadow 01:26:07 - 138° (SE) 2,276 7.1 -15.1°
Reaches altitude 10° 01:26:39 10° 132° (SE) 2,177 7.1 -15.1°
Maximum altitude 01:29:05 14° 103° (ESE) 1,988 7.1 -15.0°
Drops below altitude 10° 01:31:36 10° 74° (ENE) 2,293 7.8 -14.9°
Sets 01:35:17 0° 50° (NE) 3,306 9.2 -14.8°
